EW5035 Weather Reports


Display with metric or nautical units.
time (UTC)temp
F
wind
direction
speed
MPH
gust
MPH
rain 1hr
in
rain 24hr
in
rain mn
in
humidity
%
barometer
mb
20260905083053 54 54 6.0 10.0 0.00 0.00 0.00 71 1015.7
20260905082534 54 54 6.0 10.0 0.00 0.00 0.00 70 1015.6
20260905082035 54 54 5.0 10.0 0.00 0.00 0.00 70 1015.5
20260905081550 54 54 4.0 9.0 0.00 0.00 0.00 70 1015.6
20260905081036 54 54 3.0 7.0 0.00 0.00 0.00 70 1015.7
20260905080534 54 54 3.0 9.0 0.00 0.00 0.00 70 1015.7
20260905080052 54 54 4.0 9.0 0.00 0.00 0.00 70 1015.8
20260905075534 54 54 5.0 9.0 0.00 0.00 0.00 69 1015.7
20260905075035 53 54 3.0 7.0 0.00 0.00 0.00 70 1015.7
20260905074558 53 0 0.0 3.0 0.00 0.00 0.00 68 1015.6
20260905074034 54 54 2.0 5.0 0.00 0.00 0.00 67 1015.6
20260905073536 54 54 2.0 5.0 0.00 0.00 0.00 67 1015.5
20260905073053 54 54 2.0 5.0 0.00 0.00 0.00 66 1015.5
20260905072535 55 0 2.0 5.0 0.00 0.00 0.00 66 1015.3
20260905072037 55 0 0.0 2.0 0.00 0.00 0.00 66 1015.3
20260905071551 55 0 0.0 2.0 0.00 0.00 0.00 66 1015.3
20260905071035 55 0 0.0 4.0 0.00 0.00 0.00 66 1015.2
20260905070534 55 54 0.0 7.0 0.00 0.00 0.00 65 1015.1
20260905070116 55 54 2.0 7.0 0.00 0.00 0.00 65 1015.0
20260905065535 55 54 3.0 6.0 0.00 0.00 0.00 64 1014.9
20260905065038 55 54 4.0 7.0 0.00 0.00 0.00 64 1014.9
20260905064556 55 54 3.0 7.0 0.00 0.00 0.00 64 1014.9
20260905064034 56 54 5.0 9.0 0.00 0.00 0.00 63 1014.9
20260905063535 56 54 6.0 9.0 0.00 0.00 0.00 63 1014.8
20260905063057 56 54 5.0 7.0 0.00 0.00 0.00 64 1014.9
20260905062534 55 54 3.0 6.0 0.00 0.00 0.00 63 1014.8
20260905062039 56 54 1.0 5.0 0.00 0.00 0.00 63 1014.8
20260905061608 56 54 2.0 5.0 0.00 0.00 0.00 62 1014.9
20260905061034 56 54 1.0 4.0 0.00 0.00 0.00 62 1014.9
20260905060534 56 54 2.0 4.0 0.00 0.00 0.00 62 1014.7
20260905060101 56 54 1.0 5.0 0.00 0.00 0.00 61 1014.7
20260905055535 56 54 2.0 5.0 0.00 0.00 0.00 62 1014.7
20260905055034 56 54 1.0 4.0 0.00 0.00 0.00 62 1014.7
20260905054558 55 0 0.0 3.0 0.00 0.00 0.00 61 1014.7
20260905054034 56 54 1.0 3.0 0.00 0.00 0.00 61 1014.7
20260905053531 56 54 2.0 4.0 0.00 0.00 0.00 61 1014.8
20260905053051 56 54 1.0 5.0 0.00 0.00 0.00 61 1014.7
20260905052537 56 54 2.0 5.0 0.00 0.00 0.00 61 1014.8
20260905052035 56 54 3.0 6.0 0.00 0.00 0.00 61 1014.9
20260905051551 55 54 3.0 6.0 0.00 0.00 0.00 60 1014.8
20260905051034 55 54 3.0 5.0 0.00 0.00 0.00 60 1014.8
20260905050535 56 54 3.0 6.0 0.00 0.00 0.00 58 1014.8
20260905050051 56 54 4.0 9.0 0.00 0.00 0.00 58 1014.7
20260905045534 57 54 4.0 9.0 0.00 0.00 0.00 58 1014.8
20260905045034 57 54 5.0 9.0 0.00 0.00 0.00 58 1014.9
20260905044605 57 54 5.0 10.0 0.00 0.00 0.00 56 1014.9
20260905044036 57 54 6.0 10.0 0.00 0.00 0.00 56 1014.9
20260905043535 57 54 5.0 7.0 0.00 0.00 0.00 57 1015.0
20260905043053 56 54 2.0 4.0 0.00 0.00 0.00 56 1015.0
20260905042535 57 0 0.0 7.0 0.00 0.00 0.00 54 1015.0
20260905042035 57 54 2.0 7.0 0.00 0.00 0.00 54 1015.1
20260905041553 57 54 5.0 7.0 0.00 0.00 0.00 54 1014.9
20260905041036 57 54 2.0 6.0 0.00 0.00 0.00 54 1015.1
20260905040534 56 54 2.0 5.0 0.00 0.00 0.00 54 1015.1
20260905040054 57 54 0.0 5.0 0.00 0.00 0.00 53 1015.2
20260905035535 57 54 2.0 7.0 0.00 0.00 0.00 53 1015.1
20260905035034 57 54 4.0 7.0 0.00 0.00 0.00 52 1015.0
20260905034554 57 54 4.0 7.0 0.00 0.00 0.00 52 1015.0
20260905034034 57 54 3.0 5.0 0.00 0.00 0.00 53 1015.0
20260905033534 57 54 1.0 4.0 0.00 0.00 0.00 53 1015.1
20260905033051 57 54 2.0 5.0 0.00 0.00 0.00 52 1015.1
20260905032535 57 0 2.0 5.0 0.00 0.00 0.00 52 1015.2
20260905032034 58 54 2.0 5.0 0.00 0.00 0.00 51 1015.1
20260905031555 58 54 2.0 5.0 0.00 0.00 0.00 51 1015.0
20260905031035 59 54 3.0 5.0 0.00 0.00 0.00 50 1015.1
20260905030534 59 54 2.0 6.0 0.00 0.00 0.00 49 1015.0
20260905030049 60 54 2.0 6.0 0.00 0.00 0.00 48 1015.0
20260905025534 60 54 3.0 6.0 0.00 0.00 0.00 48 1015.0
20260905025034 61 54 3.0 5.0 0.00 0.00 0.00 47 1014.9
20260905024603 61 54 1.0 4.0 0.00 0.00 0.00 47 1014.9
20260905024034 62 54 2.0 4.0 0.00 0.00 0.00 46 1014.8
20260905023536 62 54 1.0 4.0 0.00 0.00 0.00 45 1014.8
20260905023053 63 54 2.0 4.0 0.00 0.00 0.00 44 1014.7
20260905022534 64 54 2.0 4.0 0.00 0.00 0.00 43 1014.7
20260905022035 65 54 2.0 4.0 0.00 0.00 0.00 41 1014.7
20260905021557 66 54 2.0 4.0 0.00 0.00 0.00 40 1014.6
20260905021034 66 54 2.0 5.0 0.00 0.00 0.00 40 1014.5
20260905020534 67 54 2.0 5.0 0.00 0.00 0.00 39 1014.5
20260905020059 67 54 2.0 6.0 0.00 0.00 0.00 38 1014.5
20260905015534 68 54 2.0 7.0 0.00 0.00 0.00 38 1014.4
20260905015034 68 54 4.0 7.0 0.00 0.00 0.00 37 1014.4
20260905014559 69 54 4.0 10.0 0.00 0.00 0.00 36 1014.3
20260905014035 69 54 6.0 10.0 0.00 0.00 0.00 36 1014.2
20260905013539 69 54 5.0 9.0 0.00 0.00 0.00 36 1014.2
20260905013059 69 54 4.0 9.0 0.00 0.00 0.00 35 1014.2
20260905012537 69 54 4.0 9.0 0.00 0.00 0.00 35 1014.2
20260905012035 70 54 3.0 13.0 0.00 0.00 0.00 35 1014.2
20260905011551 69 54 5.0 13.0 0.00 0.00 0.00 35 1014.2
20260905011036 70 54 9.0 13.0 0.00 0.00 0.00 35 1014.1
20260905010536 70 54 8.0 13.0 0.00 0.00 0.00 35 1014.1
20260905010049 70 54 8.0 18.0 0.00 0.00 0.00 35 1014.0
20260905005534 70 54 6.0 18.0 0.00 0.00 0.00 36 1014.1
20260905005034 70 59 7.0 18.0 0.00 0.00 0.00 36 1014.0
20260905004609 70 59 5.0 10.0 0.00 0.00 0.00 35 1014.0
20260905004035 70 59 5.0 14.0 0.00 0.00 0.00 35 1014.1
20260905003535 70 59 7.0 14.0 0.00 0.00 0.00 35 1014.1
20260905003056 70 65 5.0 14.0 0.00 0.00 0.00 35 1014.0
20260905002534 70 67 2.0 13.0 0.00 0.00 0.00 35 1014.0
20260905002035 71 67 8.0 13.0 0.00 0.00 0.00 35 1014.1
20260905001552 70 67 8.0 13.0 0.00 0.00 0.00 35 1014.0
20260905001034 70 67 5.0 10.0 0.00 0.00 0.00 35 1013.9
20260905000535 70 67 5.0 10.0 0.00 0.00 0.00 36 1013.9
20260904235534 70 67 4.0 10.0 0.00 0.00 0.00 35 1014.0
20260904235038 70 67 6.0 10.0 0.00 0.00 0.00 36 1014.1
20260904234600 70 67 3.0 10.0 0.00 0.00 0.00 36 1014.0
20260904234035 70 67 5.0 11.0 0.00 0.00 0.00 36 1014.0
20260904233535 70 67 6.0 14.0 0.00 0.00 0.00 36 1014.0
20260904233054 70 67 7.0 15.0 0.00 0.00 0.00 37 1014.0
20260904232535 70 72 10.0 15.0 0.00 0.00 0.00 37 1014.0
20260904232035 69 98 3.0 8.0 0.00 0.00 0.00 36 1014.0
20260904231553 69 98 2.0 9.0 0.00 0.00 0.00 36 1014.1
20260904231035 69 98 5.0 12.0 0.00 0.00 0.00 37 1014.1
20260904230535 69 98 6.0 12.0 0.00 0.00 0.00 36 1014.1
20260904230112 70 102 6.0 13.0 0.00 0.00 0.00 37 1014.2
20260904225538 70 102 7.0 13.0 0.00 0.00 0.00 37 1014.1
20260904225034 70 113 6.0 12.0 0.00 0.00 0.00 37 1014.1
20260904224550 70 113 6.0 12.0 0.00 0.00 0.00 37 1014.1
20260904224036 69 119 2.0 11.0 0.00 0.00 0.00 38 1014.1
20260904223536 68 125 7.0 11.0 0.00 0.00 0.00 38 1014.3
20260904223055 68 126 7.0 13.0 0.00 0.00 0.00 38 1014.2
20260904222535 68 126 6.0 13.0 0.00 0.00 0.00 39 1014.3
20260904222035 69 126 7.0 13.0 0.00 0.00 0.00 38 1014.3
20260904221550 69 134 1.0 11.0 0.00 0.00 0.00 40 1014.2
20260904221035 68 134 4.0 11.0 0.00 0.00 0.00 40 1014.4
20260904220535 69 134 3.0 11.0 0.00 0.00 0.00 39 1014.4
20260904220050 68 134 5.0 8.0 0.00 0.00 0.00 39 1014.4
20260904215536 69 134 3.0 7.0 0.00 0.00 0.00 39 1014.4
20260904215035 69 0 1.0 5.0 0.00 0.00 0.00 40 1014.4
20260904214559 68 134 1.0 7.0 0.00 0.00 0.00 40 1014.4
20260904214036 68 0 3.0 7.0 0.00 0.00 0.00 39 1014.4
20260904213535 69 134 3.0 7.0 0.00 0.00 0.00 39 1014.4
20260904213054 69 134 2.0 8.0 0.00 0.00 0.00 41 1014.4
20260904212534 68 134 1.0 8.0 0.00 0.00 0.00 41 1014.2
20260904212034 68 134 3.0 10.0 0.00 0.00 0.00 41 1014.3
20260904211552 68 134 5.0 10.0 0.00 0.00 0.00 41 1014.3
20260904211035 69 134 4.0 10.0 0.00 0.00 0.00 41 1014.2
20260904210535 68 134 3.0 8.0 0.00 0.00 0.00 39 1014.2
20260904210049 68 134 3.0 9.0 0.00 0.00 0.00 40 1014.4
20260904205536 68 0 2.0 10.0 0.00 0.00 0.00 40 1014.2
20260904205034 68 134 6.0 10.0 0.00 0.00 0.00 41 1014.1
20260904204602 68 134 1.0 10.0 0.00 0.00 0.00 41 1014.1
20260904204037 68 134 5.0 10.0 0.00 0.00 0.00 41 1014.2
20260904203537 68 134 1.0 10.0 0.00 0.00 0.00 40 1014.4
20260904203057 69 134 6.0 10.0 0.00 0.00 0.00 40 1014.4
20260904202535 69 134 2.0 11.0 0.00 0.00 0.00 40 1014.3
20260904202035 68 134 4.0 11.0 0.00 0.00 0.00 40 1014.3
20260904201553 68 134 3.0 11.0 0.00 0.00 0.00 40 1014.3
20260904201034 68 134 2.0 11.0 0.00 0.00 0.00 39 1014.3
20260904200534 68 134 3.0 10.0 0.00 0.00 0.00 41 1014.4
20260904200105 68 134 7.0 10.0 0.00 0.00 0.00 41 1014.4
20260904195538 67 134 1.0 9.0 0.00 0.00 0.00 43 1014.5
20260904195034 67 134 4.0 9.0 0.00 0.00 0.00 42 1014.5
20260904194607 67 134 4.0 11.0 0.00 0.00 0.00 43 1014.3
20260904194032 67 134 5.0 14.0 0.00 0.00 0.00 43 1014.4
20260904193539 67 134 7.0 14.0 0.00 0.00 0.00 44 1014.5
20260904193053 67 134 4.0 11.0 0.00 0.00 0.00 43 1014.5
20260904192534 66 134 6.0 11.0 0.00 0.00 0.00 43 1014.5
20260904192036 66 134 1.0 8.0 0.00 0.00 0.00 44 1014.5
20260904191552 66 134 2.0 10.0 0.00 0.00 0.00 44 1014.6
20260904191035 66 134 5.0 10.0 0.00 0.00 0.00 43 1014.7
20260904190535 67 0 4.0 8.0 0.00 0.00 0.00 43 1014.5
20260904190105 66 134 1.0 10.0 0.00 0.00 0.00 44 1014.6
20260904185534 66 134 4.0 10.0 0.00 0.00 0.00 45 1014.6
20260904185035 66 134 4.0 9.0 0.00 0.00 0.00 44 1014.6
20260904184601 66 134 2.0 7.0 0.00 0.00 0.00 45 1014.6
20260904184035 66 134 3.0 7.0 0.00 0.00 0.00 45 1014.6
20260904183535 65 0 2.0 8.0 0.00 0.00 0.00 45 1014.6
20260904183111 65 134 1.0 8.0 0.00 0.00 0.00 46 1014.7
20260904182535 65 134 3.0 9.0 0.00 0.00 0.00 45 1014.7
20260904182035 65 134 2.0 9.0 0.00 0.00 0.00 47 1014.6
20260904181602 65 134 1.0 10.0 0.00 0.00 0.00 46 1014.6
20260904181035 65 134 6.0 10.0 0.00 0.00 0.00 46 1014.7
20260904180538 64 134 2.0 7.0 0.00 0.00 0.00 47 1014.6
20260904180110 64 134 1.0 9.0 0.00 0.00 0.00 48 1014.6
20260904175536 64 134 3.0 9.0 0.00 0.00 0.00 48 1014.6
20260904175037 64 134 4.0 8.0 0.00 0.00 0.00 48 1014.6
20260904174549 63 0 0.0 7.0 0.00 0.00 0.00 49 1014.5
20260904174034 63 134 3.0 8.0 0.00 0.00 0.00 49 1014.5
20260904173535 63 134 2.0 9.0 0.00 0.00 0.00 49 1014.5
20260904173059 63 134 2.0 10.0 0.00 0.00 0.00 50 1014.5
20260904172538 63 134 4.0 10.0 0.00 0.00 0.00 50 1014.5
20260904172035 62 134 4.0 9.0 0.00 0.00 0.00 50 1014.5
20260904171550 62 134 2.0 9.0 0.00 0.00 0.00 51 1014.5
20260904171034 62 134 3.0 9.0 0.00 0.00 0.00 52 1014.4
20260904170536 62 134 4.0 9.0 0.00 0.00 0.00 52 1014.4
20260904165534 61 134 2.0 9.0 0.00 0.00 0.00 52 1014.4
20260904165036 61 134 3.0 9.0 0.00 0.00 0.00 53 1014.2
20260904164604 61 134 4.0 9.0 0.00 0.00 0.00 53 1014.2
20260904164032 61 134 5.0 9.0 0.00 0.00 0.00 53 1014.2
20260904163536 61 134 3.0 9.0 0.00 0.00 0.00 55 1014.2
20260904163105 60 134 4.0 9.0 0.00 0.00 0.00 55 1014.3
20260904162536 60 134 4.0 9.0 0.00 0.00 0.00 56 1014.2
20260904162036 60 134 4.0 9.0 0.00 0.00 0.00 57 1014.2
20260904161603 59 134 5.0 9.0 0.00 0.00 0.00 56 1014.1
20260904161036 59 134 4.0 9.0 0.00 0.00 0.00 57 1014.1
20260904160538 59 134 4.0 8.0 0.00 0.00 0.00 60 1014.2
20260904160109 59 134 4.0 9.0 0.00 0.00 0.00 60 1014.2
20260904155536 59 134 5.0 9.0 0.00 0.01 0.00 63 1014.2
20260904155036 58 134 4.0 9.0 0.00 0.01 0.00 68 1014.2
20260904154559 58 134 5.0 10.0 0.00 0.01 0.00 71 1014.3
20260904154036 58 134 5.0 10.0 0.00 0.01 0.00 70 1014.2
20260904153536 57 134 4.0 10.0 0.00 0.01 0.00 72 1014.3
20260904153105 57 134 3.0 10.0 0.00 0.01 0.00 75 1014.4
20260904152535 57 134 5.0 10.0 0.00 0.01 0.00 75 1014.4
20260904152035 56 134 5.0 10.0 0.00 0.01 0.00 77 1014.4
20260904151601 56 134 5.0 9.0 0.00 0.01 0.00 79 1014.3
20260904151035 55 134 4.0 10.0 0.00 0.01 0.00 80 1014.1
20260904150536 55 134 6.0 10.0 0.00 0.01 0.00 81 1014.1
20260904150106 55 134 3.0 8.0 0.00 0.01 0.00 82 1014.0
20260904145535 54 134 4.0 8.0 0.00 0.01 0.00 82 1014.0
20260904145039 54 134 4.0 8.0 0.00 0.01 0.00 83 1013.8
20260904144556 53 134 3.0 8.0 0.00 0.01 0.00 84 1013.9
20260904144035 53 134 2.0 7.0 0.00 0.01 0.00 85 1013.8
20260904143536 52 134 1.0 5.0 0.00 0.01 0.00 85 1013.7
20260904143052 52 134 2.0 5.0 0.00 0.01 0.00 86 1013.6
20260904142535 51 0 0.0 4.0 0.00 0.01 0.00 86 1013.4
20260904142034 50 134 2.0 4.0 0.00 0.01 0.00 85 1013.4
20260904141601 50 134 2.0 4.0 0.00 0.01 0.00 85 1013.3
20260904141035 49 134 2.0 5.0 0.00 0.01 0.00 86 1013.3
20260904140540 48 134 2.0 5.0 0.00 0.01 0.00 85 1013.2
20260904140108 48 134 0.0 3.0 0.00 0.01 0.00 85 1013.2
20260904135535 47 0 0.0 3.0 0.00 0.01 0.00 83 1013.3
20260904135035 47 0 0.0 3.0 0.00 0.01 0.00 82 1013.2
20260904134557 47 134 0.0 3.0 0.00 0.01 0.00 83 1013.1
20260904134035 47 0 0.0 3.0 0.00 0.01 0.00 83 1013.2
20260904133535 47 134 0.0 4.0 0.00 0.01 0.00 83 1013.1
20260904133052 47 134 0.0 4.0 0.00 0.01 0.00 84 1013.0
20260904132536 46 134 1.0 4.0 0.00 0.01 0.00 84 1013.1
20260904132039 46 0 0.0 0.0 0.00 0.01 0.00 82 1013.1
20260904131600 46 0 0.0 0.0 0.00 0.01 0.00 82 1012.9
20260904131036 47 0 0.0 0.0 0.00 0.01 0.00 82 1012.9
20260904130538 47 0 0.0 1.0 0.00 0.01 0.00 82 1012.9
20260904130106 47 0 0.0 1.0 0.00 0.01 0.00 81 1012.7
20260904125535 48 0 0.0 2.0 0.00 0.01 0.00 81 1012.7
20260904125036 48 0 0.0 3.0 0.00 0.01 0.00 81 1012.4
20260904124606 49 0 0.0 3.0 0.00 0.01 0.00 81 1012.5
20260904124040 49 134 0.0 3.0 0.00 0.01 0.00 80 1012.4
20260904123538 49 134 0.0 3.0 0.00 0.01 0.00 80 1012.4
20260904123058 50 134 0.0 3.0 0.00 0.01 0.00 80 1012.4
20260904122536 50 0 0.0 0.0 0.00 0.01 0.00 80 1012.4
20260904122035 51 0 0.0 0.0 0.00 0.01 0.00 79 1012.3
20260904121553 51 0 0.0 0.0 0.00 0.01 0.00 78 1012.1
20260904121038 51 0 0.0 0.0 0.00 0.01 0.00 78 1012.0
20260904120535 52 0 0.0 0.0 0.00 0.01 0.00 78 1012.1
20260904120107 52 0 0.0 0.0 0.00 0.01 0.00 78 1012.0
20260904115535 52 0 0.0 0.0 0.00 0.01 0.00 78 1012.0
20260904115035 52 0 0.0 4.0 0.00 0.01 0.00 77 1012.0
20260904114559 53 0 0.0 4.0 0.00 0.01 0.00 77 1012.0
20260904114036 53 0 2.0 7.0 0.00 0.01 0.00 78 1011.8
20260904113538 53 134 3.0 7.0 0.00 0.01 0.00 78 1012.0
20260904113050 53 134 3.0 5.0 0.00 0.01 0.00 79 1011.9
20260904112535 52 134 2.0 5.0 0.00 0.01 0.00 79 1012.0
20260904112035 52 134 4.0 5.0 0.00 0.01 0.00 79 1012.0
20260904111603 52 134 4.0 5.0 0.00 0.01 0.00 80 1011.8
20260904111036 52 134 2.0 4.0 0.00 0.01 0.00 80 1011.7
20260904110535 52 134 1.0 5.0 0.00 0.01 0.00 80 1011.7
20260904110108 52 134 2.0 7.0 0.00 0.01 0.00 81 1011.6
20260904105539 52 134 3.0 7.0 0.00 0.01 0.00 80 1011.4
20260904105035 52 134 4.0 7.0 0.00 0.01 0.00 80 1011.4
20260904104550 52 134 4.0 7.0 0.00 0.01 0.00 80 1011.4
20260904104036 52 134 5.0 7.0 0.00 0.01 0.00 80 1011.5
20260904103535 52 134 3.0 5.0 0.00 0.01 0.00 79 1011.4
20260904103058 52 134 2.0 4.0 0.00 0.01 0.00 79 1011.3
20260904102535 52 134 2.0 5.0 0.00 0.01 0.00 79 1011.4
20260904102034 51 134 1.0 5.0 0.00 0.01 0.00 79 1011.3
20260904101553 51 134 2.0 4.0 0.00 0.01 0.00 79 1011.4
20260904101036 51 134 2.0 4.0 0.00 0.01 0.00 78 1011.2
20260904100535 52 0 0.0 2.0 0.00 0.01 0.00 78 1011.2
20260904100101 52 0 0.0 3.0 0.00 0.01 0.00 78 1011.1
20260904095536 52 0 0.0 3.0 0.00 0.02 0.00 78 1011.0
20260904095036 52 134 0.0 3.0 0.00 0.02 0.00 78 1010.9
20260904094601 52 0 0.0 3.0 0.00 0.02 0.00 78 1010.9
20260904094035 52 0 0.0 3.0 0.00 0.02 0.00 77 1010.8
20260904093535 52 0 0.0 0.0 0.00 0.02 0.00 77 1010.8
20260904093057 52 0 0.0 0.0 0.00 0.02 0.00 76 1010.7
20260904092535 52 0 0.0 1.0 0.00 0.02 0.00 76 1010.7
20260904092038 52 0 0.0 3.0 0.00 0.02 0.00 76 1010.6
20260904091554 52 0 0.0 4.0 0.00 0.02 0.00 76 1010.6
20260904091035 52 134 1.0 4.0 0.00 0.02 0.00 76 1010.7
20260904090535 52 0 0.0 4.0 0.00 0.02 0.00 76 1010.7
20260904090100 52 0 1.0 4.0 0.00 0.02 0.00 76 1010.7
20260904085534 52 134 2.0 4.0 0.00 0.04 0.00 75 1010.6
20260904085037 53 134 2.0 4.0 0.00 0.04 0.00 75 1010.6
20260904084558 52 134 2.0 4.0 0.00 0.04 0.00 75 1010.7
20260904084036 52 0 0.0 3.0 0.00 0.04 0.00 75 1010.7
20260904083535 53 134 0.0 3.0 0.00 0.04 0.00 74 1010.6